Regional Weather Roundup
Issued by NWS

Home | Current Version | Previous Version | Text Only | Print | Product List | Glossary Off
Versions: 1 2 3 4 5 6 7 8 9 10 11 12 13 14 15 16 17 18 19 20 21 22 23 24 25 26 27 28 29 30 31 32 33 34 35 36 37 38 39 40 41 42 43 44 45 46 47 48 49 50

000
ASUS43 KMPX 230410
RWRMN
WEATHER ROUNDUP FOR MINNESOTA
NATIONAL WEATHER SERVICE TWIN CITIES/CHANHASSEN MN
1000 PM CST MON JAN 22 2018


NOTE: "FAIR" INDICATES FEW OR NO CLOUDS BELOW 12,000 FEET WITH NO
SIGNIFICANT WEATHER AND/OR OBSTRUCTIONS TO VISIBILITY. N/A MEANS
CURRENT SKY AND/OR WEATHER CONDITIONS ARE NOT AVAILABLE.

MNZ060>063-068>070-230500-
   Twin Cities Metro

CITY           SKY/WX    TMP DP  RH WIND       PRES   REMARKS
TWIN CITIES    LGT SNOW  27  26  96 N17       29.78R BLWGSNOWWCI  14
ST PAUL        LGT SNOW  27  24  89 N14G23    29.80R FOG     WCI  16
CRYSTAL        MIX PCPN  27  19  72 N20G26    29.79R WCI  13
BLAINE         CLOUDY    28  23  80 N21G29    29.80R WCI  15
LAKEVILLE      CLOUDY    25  25 100 N14G21    29.77R WCI  13
EDEN PRAIRIE   LGT SNOW  28  23  81 N16G25    29.78R WCI  16
SOUTH ST PAUL  LGT SNOW  28  26  94 N14G20    29.78R WCI  17
LAKE ELMO        N/A     28  27  93 N13G18    29.78R WCI  18
$$
MNZ001>005-007-008-013>017-022>024-027-028-230500-
   Northwest Minnesota

CITY           SKY/WX    TMP DP  RH WIND       PRES   REMARKS
BEMIDJI        CLOUDY    21  17  86 N7        29.98F WCI  12
HALLOCK        CLOUDY    25  18  74 E3        30.08S
ROSEAU         CLOUDY    19  16  86 E7        30.06F WCI  10
WARROAD        CLOUDY    19  16  86 N5        30.06F WCI  13
THIEF RVR FALL CLOUDY    21  16  81 N10       30.05S WCI  10
CROOKSTON      CLOUDY    21  18  86 NE8       30.07S WCI  12
FOSSTON        MOCLDY    19  16  86 N7        30.01F WCI  10
DETROIT LAKES  CLOUDY    25  21  86 NE7       29.98S WCI  17
MOORHEAD       CLOUDY    25  19  80 N13       30.03S WCI  13
PARK RAPIDS    CLOUDY    23  17  78 NE14G24   29.95S WCI  11
MAHNOMEN       CLOUDY    23  17  80 NE13      29.99S WCI  11
$$
MNZ006-009>011-018-025>026-230500-
   North Central Minnesota

CITY           SKY/WX    TMP DP  RH WIND       PRES   REMARKS
BAUDETTE       CLOUDY    19  13  77 N7        30.02F WCI  10
FLAG ISLAND    CLOUDY    18  12  79 N8        30.06S WCI   7
INTL FALLS     CLOUDY    15   9  76 NE10      30.01F WCI   2
WASKISH        CLOUDY    19  16  86 N7        30.01S WCI  10
BIG FORK       CLOUDY    19  16  86 N5        29.97F WCI  13
LONGVILLE      CLOUDY    21  18  86 N6        29.95S WCI  14
GRAND RAPIDS   FAIR      19  15  84 N13       29.95S WCI   6
CRANE LAKE     FAIR      10   9  92 N5        30.02S WCI   2
ORR            FAIR      12   9  85 CALM      29.95S
COOK           MOCLDY    12  10  92 N6        29.96S WCI   3
WALKER         CLOUDY    22  17  81 N12       29.97S WCI  10
$$
MNZ012-019>021-037-230500-
   Northeast Minnesota

CITY           SKY/WX    TMP DP  RH WIND       PRES   REMARKS
DULUTH         CLOUDY    19  13  77 N13G21    29.85S WCI   6
ELY            CLOUDY    10   7  85 N5        29.93F WCI   2
HIBBING        FAIR      16  11  80 N12       29.92S WCI   3
EVELETH        FAIR      23  16  75 N7        29.92F WCI  14
DULUTH HARBOR  CLOUDY    25  19  80 N18G24    29.89R WCI  11
TWO HARBORS    FAIR      19  14  79 N9        29.84F WCI   9
SILVER BAY     FAIR      18  12  79 VRB6      29.85S WCI   9
GRAND MARAIS     N/A     16   7  67 N18G30    29.84F WCI   0
G MARAIS ARPRT FAIR       5   0  78 NW14G23   29.80F WCI -12
$$
MNZ029>031-032-039>041-046>048-054>057-064-230500-
   West Central Minnesota

CITY           SKY/WX    TMP DP  RH WIND       PRES   REMARKS
FERGUS FALLS   CLOUDY    25  19  80 NE8       29.98S WCI  16
MORRIS         CLOUDY    25  19  80 N16       29.94S WCI  12
ALEXANDRIA     CLOUDY    23  18  81 N13G24    29.93R WCI  11
ELBOW LAKE     CLOUDY    24  19  83 NE14      29.97R WCI  11
WADENA         CLOUDY    21  18  86 N13       29.94S WCI   9
GLENWOOD       FAIR      25  19  80 N18       29.91S WCI  11
APPLETON       CLOUDY    27  21  80 N20G25    29.95R WCI  13
BENSON         CLOUDY    27  19  74 NE16G24   29.94S WCI  14
ORTONVILLE     CLOUDY    25  19  80 N18       29.96S WCI  11
MADISON        CLOUDY    30  23  74 N16G26    29.95R WCI  19
WILLMAR        FAIR      25  21  86 N16G25    29.90S WCI  12
$$
MNZ033>034-036-042>043-049>051-058-059-230500-
   Central Minnesota

CITY           SKY/WX    TMP DP  RH WIND       PRES   REMARKS
ST CLOUD       CLOUDY    26  21  81 N16G23    29.86R WCI  14
SAUK CENTRE      N/A     24  19  81 N13G18    29.91R WCI  13
PAYNESVILLE    CLOUDY    27  23  85 N14G20    29.88S WCI  15
AITKIN         MOCLDY    21  16  79 N12       29.90S WCI   9
PINE RIVER     CLOUDY    21  16  79 N16       29.97R WCI   7
BRAINERD       CLOUDY    25  16  68 N15G23    29.92R WCI  13
STAPLES        CLOUDY    21  16  79 N12G18    29.93F WCI   9
LONG PRAIRIE   CLOUDY    23  19  86 NW15G23   29.91S WCI  10
LITTLE FALLS   CLOUDY    27  14  59 N9G18     29.91R WCI  17
LITCHFIELD     FAIR      28  23  80 N16G25    29.85S WCI  17
BUFFALO        CLOUDY    27  21  77 N16G25    29.84R WCI  15
MAPLE LAKE     CLOUDY    28  23  82 MISG      29.85S
HUTCHINSON     MOCLDY    29  23  81 N22G33    29.83S WCI  15
$$
MNZ037-044-045-052-053-230500-
   East Central Minnesota

CITY           SKY/WX    TMP DP  RH WIND       PRES   REMARKS
PRINCETON      CLOUDY    27  21  80 N14G22    29.84S WCI  15
MORA           CLOUDY    27  21  80 N12G22    29.86S WCI  16
CAMBRIDGE      FAIR      28  19  69 N10G24    29.84R WCI  19
RUSH CITY      CLOUDY    25  20  79 N13G24    29.83R WCI  14
MOOSE LAKE     CLOUDY    23  16  74 N16G22    29.85S WCI  10
HINCKLEY       CLOUDY    27  19  74 N16G24    29.84S WCI  14
CLOQUET        CLOUDY    19  12  73 N10G25    29.86S WCI   8
MCGREGOR       CLOUDY    23  18  80 N12G17    29.90S WCI  12
$$
MNZ071>073-080-081-089-090-097-098-230500-
   Southwest Minnesota

CITY           SKY/WX    TMP DP  RH WIND       PRES   REMARKS
MONTEVIDEO     CLOUDY    27  21  80 NE20G28   29.92S WCI  13
GRANITE FALLS  CLOUDY    29  24  79 NW20      29.92R WCI  17
CANBY          CLOUDY    28  24  85 N14       29.95R WCI  17
MARSHALL       CLOUDY    27  22  81 N23G29    29.89R WCI  12
REDWOOD FALLS  CLOUDY    28  22  78 N12G26    29.86R WCI  18
OLIVIA         CLOUDY    30  25  80 N15G24    29.86R WCI  19
PIPESTONE      CLOUDY    25  21  86 N18       29.87R WCI  11
WINDOM         CLOUDY    27  14  59 NW25      29.82R WCI  11
WORTHINGTON    LGT SNOW  26  24  92 N28G35    29.82R FOG     WCI  10
JACKSON        CLOUDY    28  27  93 N22G35    29.79R WCI  15
TRACY          CLOUDY    28  24  87 N20G28    29.87R WCI  15
SLAYTON        CLOUDY    26  23  90 N24G36    29.85R WCI  10
$$
MNZ065>067-074>077-082>085-091>093-230500-
   South Central Minnesota

CITY           SKY/WX    TMP DP  RH WIND       PRES   REMARKS
MANKATO        LGT SNOW  26  25  96 N21       29.79R FOG     WCI  12
NEW ULM        CLOUDY    28  21  74 N13G24    29.81R WCI  18
ST JAMES         N/A    N/A N/A N/A N21       29.82R
FAIRMONT       LGT SNOW  27  26  96 N25G31    29.77R FOG     WCI  12
FARIBAULT      LGT SNOW  27  25  93 N12G21    29.76R WCI  16
OWATONNA         N/A     27  23  86 N22G28    29.73R WCI  12
WASECA           N/A     27  23  86 N18G25    29.76R WCI  13
ALBERT LEA     LGT SNOW  27  23  86 N18G25    29.69R WCI  13
$$
MNZ078>079-086>088-094>096-230500-
   Southeast Minnesota

CITY           SKY/WX    TMP DP  RH WIND       PRES   REMARKS
ROCHESTER      CLOUDY    27  26  96 N20       29.65R FOG     WCI  13
RED WING       LGT SNOW  28  21  74 N10G18    29.73R WCI  19
STANTON        LGT SNOW  28  25  89 N18       29.74R WCI  15
DODGE CENTER   LGT SNOW  25  23  93 N18       29.68R WCI  11
WINONA         CLOUDY    32  28  86 N8G16     29.64R WCI  25
AUSTIN         LGT SNOW  27  23  86 N16G22    29.65R WCI  14
PRESTON        CLOUDY    28  26  91 N14G20    29.61R FOG     WCI  17
$$
ABBREVIATIONS USED IN REMARKS
   TC - TEMPERATURES IN CELSIUS
  WCI - WIND CHILL INDEX
   HX - HEAT INDEX
  VSB - VISIBILITY
$$




USA.gov is the U.S. government's official web portal to all federal, state and local government web resources and services.